Regional Weather Roundup
Issued by NWS State College, PA

Home | Current Version | Previous Version | Text Only | Print | Product List | Glossary On
Versions: 1 2 3 4 5 6 7 8 9 10 11 12 13 14 15 16 17 18 19 20 21 22 23 24 25 26 27 28 29 30 31 32 33 34 35 36 37 38 39 40 41 42 43 44 45 46 47 48 49 50
000
ASUS41 KCTP 301903
RWRCTP

REGIONAL WEATHER ROUNDUP
NATIONAL WEATHER SERVICE STATE COLLEGE PA
300 PM EDT FRI SEP 30 2016

Note: "fair" indicates few or no clouds below 12,000 feet with no
significant weather and/or obstructions to visibility.

* = STATION THAT DOES NOT REPORT PRECIPITATION /E.G. RAIN...SNOW...ETC/
    THUNDER OR FOG.

PAZ002>004-007>009-013>016-020>023-029>032-302000-
WESTERN PENNSYLVANIA

CITY           SKY/WX    TMP DP  RH WIND       PRES   REMARKS
ERIE           CLOUDY    68  58  70 SE14      30.14F
MEADVILLE      CLOUDY    62  55  77 E15       30.14F
FRANKLIN*        N/A     59  52  77 E14       30.17S
NEW CASTLE     NOT AVBL
BEAVER COUNTY  CLOUDY    63  55  77 SE9G16    30.09F
BUTLER*        CLOUDY    61  54  77 E14       30.15F
PITTSBURGH INT CLOUDY    63  57  81 E10       30.10F
PITTSBURGH     CLOUDY    63  54  72 E8        30.10F
INDIANA*       CLOUDY    59  54  82 E14G24    30.18F
LATROBE        CLOUDY    61  55  82 NE7       30.14F
WASHINGTON CO* CLOUDY    63  57  82 NE3       30.09F
$$

PAZ004>006-010>012-017>019-024>028-033>037-041-042-045-046-049>053-302000-
CENTRAL PENNSYLVANIA

CITY           SKY/WX    TMP DP  RH WIND       PRES   REMARKS
BRADFORD       CLOUDY    57  56  96 E10G22    30.22F FOG
DUBOIS         CLOUDY    57  52  83 E15G26    30.18F
CLEARFIELD     CLOUDY    56  55  97 E9        30.21F
JOHNSTOWN      CLOUDY    54  53  97 VRB7G16   30.16F FOG
ALTOONA        CLOUDY    54  54 100 E9G17     30.20F
STATE COLLEGE  CLOUDY    55  54  94 E8        30.22F
WILLIAMSPORT   CLOUDY    59  58  96 E6        30.24F
SELINSGROVE    CLOUDY    57  57 100 N5        30.24F FOG
FT INDIANTOWN  CLOUDY    57  54  91 E9G20     30.21F
CAPITAL CITY   CLOUDY    58  54  86 E10       30.21F FOG
HARRISBURG     LGT RAIN  57  56  96 E6        30.20F FOG
YORK           LGT RAIN  58  57  97 NE7       30.20S
$$

PAZ038>040-043-044-047-048-054-055-060>062-067>071-302000-
EASTERN PENNSYLVANIA

CITY           SKY/WX    TMP DP  RH WIND       PRES   REMARKS
SCRANTON       CLOUDY    57  51  80 VRB7      30.26F
MOUNT POCONO   LGT RAIN  51  50  96 E16G28    30.26F FOG
ALLENTOWN      CLOUDY    59  53  80 NE16      30.24F
QUAKERTOWN*    CLOUDY    59  55  88 E8G18     30.23F
READING        CLOUDY    57  54  89 N8        30.22F FOG
LANCASTER      CLOUDY    60  58  92 E15G24    30.20F
COATESVILLE    CLOUDY    57  57 100 NE7G25    30.21S FOG
POTTSTOWN      LGT RAIN  59  56  89 NE8       30.24S FOG
BLUE BELL      CLOUDY    59  57  94 E10G16    30.20F
DOYLESTOWN     CLOUDY    61  58  90 VRB6      30.21F
WILLOW GROVE   NOT AVBL
NORTH PHILA    CLOUDY    63  60  90 NE16G29   30.21F
PHILADELPHIA   DRIZZLE   63  60  90 NE15G24   30.20S FOG
$$



USA.gov is the U.S. government's official web portal to all federal, state and local government web resources and services.